Regional Weather Roundup
Issued by NWS Sterling, VA

Home | Current Version | Previous Version | Text Only | Print | Product List | Glossary On
Versions: 1 2 3 4 5 6 7 8 9 10 11 12 13 14 15 16 17 18 19 20 21 22 23 24 25 26 27 28
000
ASUS41 KLWX 292211
RWRLWX

REGIONAL WEATHER ROUNDUP
NATIONAL WEATHER SERVICE BALTIMORE MD/WASHINGTON DC
600 PM EDT THU SEP 29 2016

Note: "FAIR" indicates few or no clouds below 12,000 feet
with no significant weather and/or obstructions to visibility.
 TC=TEMPERATURE CELSIUS

 * =Non NWS site. Station does not report precipitation (e.g. rain,
    snow, etc.), thunder, or fog.

DCZ001-MDZ009-015-VAZ040>042-051-053>054-292300-
WASHINGTON METRO

CITY           SKY/WX    TMP DP  RH WIND       PRES   REMARKS
WASHINGTON NAT CLOUDY    68  66  93 E14G21    30.15R
DULLES         LGT RAIN  66  64  93 E14       30.14R FOG
ANDREWS AFB    CLOUDY    66  64  93 E17       30.14R
FT BELVOIR     CLOUDY    68  64  88 VRB3      30.13S
QUANTICO       CLOUDY    71  65  81 E17       30.13R
COLLEGE PARK*  CLOUDY    64  63  94 NE8       30.15F
LEESBURG*      CLOUDY    66  66 100 E13G18    30.16R FOG
GAITHERSBURG*  CLOUDY    64  61  88 E5        30.20R

$$

MDZ006>007-011-014-292300-
BALTIMORE METRO

CITY           SKY/WX    TMP DP  RH WIND       PRES   REMARKS
BWI AIRPORT    DRIZZLE   64  63  96 E17       30.18R FOG
MD SCIENCE CTR   N/A     64  62  93 MISG      30.19S
MARTIN STATE   DRIZZLE   64  64 100 E12G23    30.22R
ANNAPOLIS      CLOUDY    68  64  87 E18G26    30.17S
FORT MEADE*    CLOUDY    63  63 100 NE9G17    30.19S

$$

MDZ012-015-019>023-292300-
MARYLAND EASTERN SHORE

CITY           SKY/WX    TMP DP  RH WIND       PRES   REMARKS
OCEAN CITY     HVY RAIN N/A N/A N/A E24G37    30.13F
SALISBURY      RAIN      66  65  96 NE20G30   30.13S FOG
BAY BRIDGE AP* CLOUDY    66  63  88 MISG      30.17R
CAMBRIDGE*     CLOUDY    64  63  94 E13G21    30.13S
EASTON*        CLOUDY    66  63  88 E16G26    30.18S

$$

MDZ017>025-292300-
SOUTHERN MARYLAND

CITY           SKY/WX    TMP DP  RH WIND       PRES   REMARKS
PATUXENT RIVER CLOUDY    69  63  81 NE18G29   30.11S
ST INIGOES     LGT RAIN  69  64  84 NE17G32   30.11R
LEONARDTOWN*   CLOUDY    68  63  83 E8G21     30.15R

$$

MDZ003>005-292300-
NORTH CENTRAL MARYLAND

CITY           SKY/WX    TMP DP  RH WIND       PRES   REMARKS
FREDERICK*     CLOUDY    66  66 100 E9        30.20R
HAGERSTOWN APT CLOUDY    65  60  84 E14       30.18R

$$

MDZ501>502-292300-
WESTERN MARYLAND

CITY           SKY/WX    TMP DP  RH WIND       PRES   REMARKS
OAKLAND*         N/A     55  55 100 E12G20    30.13S FOG
CUMBERLAND*    CLOUDY    63  63 100 N5        30.16F

$$

VAZ025>031-292300-
SHENANDOAH VALLEY

CITY           SKY/WX    TMP DP  RH WIND       PRES   REMARKS
WINCHESTER*    LGT RAIN  64  63  94 E12       30.12R
FRONT ROYAL*   CLOUDY    66  64  94 E13G21    30.09R
LURAY*         RAIN     N/A N/A N/A E13G21    30.08R
NEW MARKET*    CLOUDY   N/A N/A N/A NE8       30.05S
STAUNTON*      CLOUDY    71  65  82 E10       30.08R
WAYNESBORO*    CLOUDY    69  66  88 E8        30.07R

$$

WVZ021-048>050-054>055-292300-
EASTERN WEST VIRGINIA PANHANDLE

CITY           SKY/WX    TMP DP  RH WIND       PRES   REMARKS
MARTINSBURG    CLOUDY    65  62  90 NE9       30.15R
PETERSBURG*    HVY RAIN  68  66  93 NW3       30.05F

$$

VAZ036>039-050-292300-
CENTRAL FOOTHILLS

CITY           SKY/WX    TMP DP  RH WIND       PRES   REMARKS
CHARLOTTESVILL CLOUDY    72  68  87 E12       30.06S
CULPEPER*      CLOUDY    70  67  89 E6        30.11S
ORANGE*          N/A     70  70 100 NE15      30.10S
GORDONSVILLE*  CLOUDY    70  68  94 NE13      30.07S
WARRENTON*     CLOUDY    69  62  79 E15G23    30.11R

$$

VAZ055>057-292300-
NORTH AND CENTRAL PIEDMONT

CITY           SKY/WX    TMP DP  RH WIND       PRES   REMARKS
FREDERICKSBRG* CLOUDY    70  69  96 E13G21    30.09S
STAFFORD*      CLOUDY    69  66  91 E14G21    30.15S

$$

NCZ024-NYZ072-PAZ021-071-VAZ022-071-292300-
OTHER REGIONAL OBSERVATIONS

CITY           SKY/WX    TMP DP  RH WIND       PRES   REMARKS
NEW YORK CITY  CLOUDY    63  52  67 E9G17     30.37S
PHILADELPHIA   LGT RAIN  62  59  90 E21G29    30.26R
PITTSBURGH     CLOUDY    67  59  75 E13G29    30.10R
ROANOKE        TSTM      68  65  90 SW5       30.04R
RICHMOND       CLOUDY    70  67  90 E16G29    30.06S
RALEIGH        PTSUNNY   75  68  78 SE8       30.01R

$$

ANZ530>537-292300-
MARINE OBSERVATIONS

STATION/POSITION TIME  TEMP    WIND        PRES
                       AIR SEA DIR/SP/G
                 (UTC) (F)     (DEG/KT/KT) (MB)
THOMAS PT LIGHT  2200   67 73   70/ 24/ 25 1022.4F
BALT KEY BRIDGE  2142   66      70/ 16/ 18   N/A
COVE POINT       2142   69     100/ 23/ 30   N/A
LEWISETTA        2142   71 73   80/ 22/ 32   N/A
SOLOMONS ISLAND  2142   70 74   60/ 19/ 23   N/A
PINEY POINT      2136           80/ 14/ 18   N/A

$$





USA.gov is the U.S. government's official web portal to all federal, state and local government web resources and services.